Home   Weather   Naha   Past weeks

Flag for Japan Past Weather in Naha, Okinawa, Japan — Yesterday and Last 2 Weeks

Now
81 °F

Partly sunny.


Feels Like: 85 °F
Forecast: 69 / 76 °F
Wind: 16 mph from North

Location: Naha Airport

Current Time: May 25, 2017 at 4:07:10 pm

Latest Report: May 25, 2017 at 3:30 pm


Visibility: N/A

Pressure: 29.68 "Hg

Humidity: 74%

Dew Point: 72 °F

Location of NahaLocation

Past Weather in Naha — Graph

°F

Naha Temperature Yesterday

Maximum temperature yesterday: 82 °F (at 1:00 pm)
Minimum temperature yesterday: 75 °F (at 1:00 am)
Average temperature yesterday: 78 °F

High & Low Weather Summary for the Past Weeks

 TemperatureHumidityPressure
High84 °F (May 11, 2:00 pm)94% (May 13, 8:00 am)30.07 "Hg (May 13, 8:00 am)
Low66 °F (May 16, 4:42 pm)37% (May 10, 2:00 pm)29.59 "Hg (May 25, 3:00 am)
Average76 °F76%29.84 "Hg
* Reported May 10 2:00 pm — May 25 2:30 pm, Naha. Weather by CustomWeather, © 2017

Note: Actual official high and low records may vary slightly from our data, if they occured in-between our weather recording intervals... More about our weather records

Advertising

Naha Weather History for the Previous 24 Hours

Scroll right to see more
 ConditionsComfort  
Time TempWeatherWind HumidityBarometerVisibility
2:30 pm
Thu, May 25
79 °FPartly sunny.14 mph79%29.65 "HgN/A
2:00 pm81 °FPartly sunny.15 mph74%29.68 "HgN/A
1:30 pm81 °FScattered clouds.18 mph74%29.68 "HgN/A
1:00 pm81 °FScattered clouds.18 mph74%29.68 "HgN/A
12:30 pm81 °FScattered clouds.18 mph74%29.68 "HgN/A
12:00 pm79 °FPartly sunny.18 mph79%29.68 "HgN/A
11:30 am79 °FPartly sunny.18 mph79%29.68 "HgN/A
11:00 am81 °FPartly sunny.18 mph79%29.68 "HgN/A
10:30 am79 °FPartly sunny.16 mph84%29.65 "HgN/A
10:00 am81 °FPartly sunny.15 mph79%29.65 "HgN/A
9:30 am79 °FBroken clouds.12 mph84%29.65 "HgN/A
9:00 am81 °FPartly sunny.7 mph79%29.65 "HgN/A
8:30 am79 °FPartly sunny.10 mph84%29.62 "HgN/A
8:00 am79 °FBroken clouds.10 mph79%29.62 "HgN/A
7:30 am79 °FPartly sunny.10 mph79%29.62 "HgN/A
7:00 am77 °FBroken clouds.10 mph83%29.62 "HgN/A
6:30 am77 °FPartly sunny.9 mph89%29.62 "HgN/A
6:00 am77 °FPartly sunny.9 mph89%29.59 "HgN/A
5:30 am77 °FPassing clouds.14 mph89%29.59 "HgN/A
5:00 am77 °FPassing clouds.13 mph89%29.59 "HgN/A
4:30 am75 °FScattered showers. Partly cloudy.13 mph94%29.62 "HgN/A
4:09 am75 °FSprinkles. Partly cloudy.16 mph94%29.59 "Hg5 mi
4:00 am75 °FSprinkles. Fog.16 mph94%29.59 "Hg3 mi
3:30 am75 °FSprinkles. Passing clouds.17 mph94%29.62 "Hg4 mi
3:00 am77 °FSprinkles. Passing clouds.18 mph89%29.59 "HgN/A
2:30 am79 °FScattered showers. Passing clouds.16 mph84%29.62 "HgN/A
2:00 am79 °FPassing clouds.17 mph84%29.62 "HgN/A
1:30 am79 °FPassing clouds.18 mph89%29.62 "HgN/A
1:00 am79 °FPartly cloudy.18 mph89%29.65 "HgN/A
12:30 am79 °FPartly cloudy.17 mph84%29.65 "HgN/A
12:00 am79 °FPassing clouds.16 mph84%29.65 "HgN/A
11:30 pm
Wed, May 24
77 °FPartly cloudy.17 mph89%29.68 "HgN/A
11:00 pm77 °FPartly cloudy.18 mph89%29.68 "HgN/A
10:30 pm77 °FPassing clouds.20 mph89%29.68 "HgN/A
10:00 pm77 °FPartly cloudy.18 mph89%29.68 "HgN/A
9:30 pm77 °FSprinkles. Partly cloudy.16 mph89%29.68 "HgN/A
9:00 pm77 °FSprinkles. Partly cloudy.15 mph89%29.68 "HgN/A
8:30 pm79 °FSprinkles. Partly cloudy.15 mph84%29.68 "HgN/A
8:00 pm79 °FPassing clouds.14 mph79%29.68 "HgN/A
7:30 pm79 °FPartly cloudy.14 mph79%29.65 "HgN/A
7:00 pm79 °FPartly sunny.12 mph79%29.65 "HgN/A
6:30 pm79 °FPartly sunny.12 mph79%29.65 "HgN/A
6:00 pm79 °FPartly sunny.12 mph79%29.65 "HgN/A
5:30 pm79 °FPartly sunny.12 mph79%29.65 "HgN/A
4:30 pm79 °FPartly sunny.10 mph79%29.65 "HgN/A
4:00 pm79 °FPartly sunny.12 mph79%29.65 "HgN/A
Weather by CustomWeather, © 2017

See weather overviewHow to use our weather pages